Regional Weather Roundup
Issued by NWS

Home | Current Version | Previous Version | Graphics & Text | Print | Product List | Glossary On
Versions: 1 2 3 4 5 6 7 8 9 10 11 12 13 14 15 16 17 18 19 20 21 22 23 24 25 26 27 28 29 30 31 32 33 34 35 36 37 38 39 40 41 42 43 44 45 46 47 48 49 50
000
ASUS45 KSLC 191710
RWRUT

UTAH REGIONAL WEATHER ROUNDUP
NATIONAL WEATHER SERVICE SALT LAKE CITY UT
1000 AM MST THU JAN 19 2017

UTZ001>011-023>025-191800-

NORTHERN UTAH

CITY           SKY/WX    TMP DP  RH WIND       PRES   REMARKS
BRIGHAM CITY     N/A     25  21  87 CALM      29.81F VSB 3/4
DUGWAY           N/A     32  32  99 CALM      29.81F VSB 3/8
HILL AFB       SNOW      30  28  94 E3        29.78S VSB 1/2
LOGAN          LGT SNOW  20  18  92 SW5       29.80S FOG     WCI  13
OGDEN          SNOW      26  25  96 E3        29.79F VSB 1/2
SALT LAKE CITY SNOW      28  26  92 CALM      29.80F VSB 1/2
TOOELE VALLEY  LGT SNOW  28  27  93 W5        29.82R WCI  23
WENDOVER       CLOUDY    23  19  86 CALM      29.82R
HEBER CITY     CLOUDY    32  27  80 NW3       29.76R
WEST JORDAN    CLOUDY    33  33 100 S9        29.80S WCI  25

$$

UTZ011>015-024>027-191800-

CENTRAL/NORTHEAST UTAH

CITY           SKY/WX    TMP DP  RH WIND       PRES   REMARKS
PROVO AIRPORT  LGT SNOW  33  29  85 CALM      29.83R FOG
MOAB/CANYONLAN CLOUDY    31  28  89 N7        29.86R WCI  24
DELTA          CLOUDY    32  32 100 S9        29.81R VSB 3/4 WCI  24
PRICE          CLOUDY    25  23  92 CALM      29.83S
RICHFIELD      CLOUDY    36  34  93 SW10      29.83R FOG     WCI  28
ROOSEVELT      CLOUDY    14  10  85 CALM      29.93F
VERNAL         CLOUDY    13   8  81 CALM      29.91F

$$

UTZ013>016-019>022-027-191800-

SOUTHERN UTAH

CITY           SKY/WX    TMP DP  RH WIND       PRES   REMARKS
BRYCE CANYON   FOG       26  25  96 SE13      29.84S VSB<1/4 WCI  15
CEDAR CITY     FLURRIES  33  30  88 SW7       29.81R WCI  27
MILFORD        LGT SNOW  33  32  96 S16       29.81R FOG     WCI  23
ST GEORGE      CLOUDY    41  36  81 CALM      29.91S
HANKSVILLE     CLOUDY    30  27  86 MISG      29.88S
BLANDING       CLOUDY    32  29  88 E3        29.98S

$$

REGIONAL REPORTS     COLORADO/ARIZONA

CITY           SKY/WX    TMP DP  RH WIND       PRES   REMARKS
CRAIG, CO      CLOUDY    11   5  77 W5        29.84F WCI   3
GRAND JUNCTION CLOUDY    34  26  72 E16       29.85F WCI  24
RIFLE, CO      CLOUDY    26  20  77 CALM      29.88F
MONTROSE, CO   CLOUDY    31  20  63 S3        29.90F
CORTEZ, CO     CLOUDY    32  27  81 E7        29.92F WCI  26
COLORADO CITY  DRIZZLE   36  36 100 E5        29.91S WCI  32
PAGE, AZ       CLOUDY    39  31  72 NE3       29.87F
GRAND CANYON   MIX PCPN  31  30  96 SW13      29.92S FOG     WCI  21
KINGMAN, AZ    LGT RAIN  43  38  82 CALM      29.93R
FLAGSTAFF, AZ  LGT SNOW  29  28  96 SW16      29.94S VSB 1   WCI  17

$$

REGIONAL REPORTS    NEVADA/IDAHO/WYOMING

CITY           SKY/WX    TMP DP  RH WIND       PRES   REMARKS
LAS VEGAS, NV  CLOUDY    51  39  63 S9        29.84S
ELY, NY        LGT SNOW  29  27  92 SW6       29.79S VSB 3/4 WCI  23
ELKO, NV       CLOUDY    33  27  78 CALM      29.73S
POCATELLO, ID  LGT SNOW  32  30  92 NE6       29.73R VSB 1   WCI  26
BURLEY, ID     CLOUDY    36  29  75 S17       29.69R WCI  26
FORT BRIDGER,  LGT SNOW  15  10  83 SE5       29.77R WCI   7
EVANSTON, WY   LGT SNOW  26  20  77 SW12      29.73R WCI  16
ROCK SPRINGS,  CLOUDY     3   0  87 CALM      29.76R

$$



USA.gov is the U.S. government's official web portal to all federal, state and local government web resources and services.